Location: Powder Track
(41.8531°N, 72.3584°W)
Time: 08:26:08
(UTC+00:00)

Transit 4A - Pass Details

Date: 10 August 2021
Orbit: 871 x 974 km, 66.8° (Epoch: 20 September)

Event Time Altitude Azimuth Distance (km) Brightness Sun altitude
Rises 10:31:45 0° 335° (NNW) 3,478 10.8 6.0°
Reaches altitude 10° 10:34:26 10° 344° (NNW) 2,545 10.2 6.5°
Maximum altitude 10:39:50 36° 50° (NE) 1,376 9.9 7.5°
Drops below altitude 10° 10:45:19 10° 117° (ESE) 2,588 11.2 8.5°
Sets 10:48:04 0° 125° (SE) 3,544 11.6 9.0°
